Regional Weather Roundup
Issued by NWS

Home | Current Version | Previous Version | Text Only | Print | Product List | Glossary On
Versions: 1 2 3 4 5 6 7 8 9 10 11 12 13 14 15 16 17 18 19 20 21 22 23 24 25 26 27
000
ASUS44 KBMX 230710
RWRAL

ALABAMA REGIONAL WEATHER ROUNDUP
NATIONAL WEATHER SERVICE BIRMINGHAM AL
100 AM CST FRI FEB 23 2018

NOTE: "FAIR" INDICATES FEW OR NO CLOUDS BELOW 12,000 FEET
WITH NO SIGNIFICANT WEATHER AND/OR OBSTRUCTIONS TO VISIBILITY.

THE REMARK "TC" DENOTES TEMPERATURE IN DEGREES CELSIUS.

ALZ001>011-014-016>018-020-230800-
NORTH ALABAMA

CITY           SKY/WX    TMP DP  RH WIND       PRES   REMARKS
MUSCLE SHOALS  FAIR      67  59  75 S7        30.29S
HUNTSVILLE     FAIR      65  61  87 S10       30.30R
DECATUR        FAIR      63  59  87 S9        30.30S
HALEYVILLE     FAIR      65  63  93 S7        30.33S
GADSDEN        MOCLDY    59  59 100 N5        30.35S
$$

ALZ012-013-022-023-030>036-040>044-230800-
WEST CENTRAL ALABAMA

CITY           SKY/WX    TMP DP  RH WIND       PRES   REMARKS
TUSCALOOSA     MOCLDY    68  63  84 S5        30.32R
DEMOPOLIS        N/A     68  63  84 S5        30.32S
$$

ALZ015-024>026-033>036-041>044-230800-
CENTRAL ALABAMA

CITY           SKY/WX    TMP DP  RH WIND       PRES   REMARKS
BIRMINGHAM     FAIR      69  60  73 SE7       30.36R
MONTGOMERY     FAIR      65  62  90 CALM      30.35F
SHELBY CO ARPT FAIR      67  62  84 S6        30.35R
MAXWELL AFB    FAIR      65  61  87 S3        30.34S
GREENVILLE     FAIR      63  59  87 CALM      30.34F
SELMA          CLOUDY    66  63  88 MISG      30.33S
PRATTVILLE     PTSUNNY   61  61 100 CALM      30.34S
BESSEMER       FAIR      67  61  81 S6        30.35R
TALLADEGA      FAIR      60  58  95 CALM      30.36S
PELL CITY      SUNNY     55  55 100 CALM      30.36R FOG
MARION         CLOUDY    66  64  92 SW5       30.33S
SYLACAUGA      FAIR      68  64  86 SE6       30.36R
$$

ALZ019-021-028-029-037-038-045>048-230800-
EAST CENTRAL ALABAMA

CITY           SKY/WX    TMP DP  RH WIND       PRES   REMARKS
ANNISTON       FAIR      70  60  70 S6        30.35F
ALEXANDER CITY FAIR      64  64 100 CALM      30.37R
AUBURN         FAIR      66  61  84 SE3       30.38F
$$

ALZ051>064-230800-
SOUTHWEST ALABAMA

CITY           SKY/WX    TMP DP  RH WIND       PRES   REMARKS
MOBILE         CLOUDY    68  66  93 SE5       30.33F
BROOKLEY FIELD FOG       65  65 100 CALM      30.33F VSB 3/4
EVERGREEN      FAIR      61  58  90 CALM      30.34F
$$

ALZ049-050-065>069-230800-
SOUTHEAST ALABAMA

CITY           SKY/WX    TMP DP  RH WIND       PRES   REMARKS
DOTHAN         FAIR      62  58  86 CALM      30.38F
OZARK          FAIR      62  60  95 NE3       30.35S
TROY           FAIR      60  59  96 CALM      30.36F
EUFAULA        FAIR      68  61  78 SE6       30.35S
$$




USA.gov is the U.S. government's official web portal to all federal, state and local government web resources and services.